Content
SEND FEEDBACK

Daily
Averages
Monthly
Summary
United States of America

NEW YORK - CENTRAL PARK, NEW YORK


Home > North America > United States > New York
Elevation: 14 feet     Latitude: 40 47N     Longitude: 073 58W

WEATHER
 
SELECT A DAY
Number of Records: 147,991;   Date Range: 11/1/95 - 7/20/14
 
SHARE

PRINT THIS DATA

[ ← Previous Day ]
WEATHER ALMANAC - OCTOBER 15, 2013
[ Next Day → ]
[ °C ]   °F
Weather ElementAverageHighLow
Temperature60.5 °F71.1 °F (2:51 pm)54 °F (2:51 am)
Dewpoint49.1 °F53.1 °F (12:51 pm)44.1 °F (8:51 pm)
Humidity67.7 %86 % (1:51 am)44 % (3:51 pm)
Barometer30.19 in30.25 in (1:51 am)30.13 in (11:51 pm)
Wind Speed2.9 mph6.9 mph (10:51 pm)
Weather ElementAverage
Visibility9.5 mi
Wind DirectionNE (45.2 °)

Weather ElementTotal
Precipitation---
Heating Degree Days2.5 (Base 65)
Growing Degree Days12.6 (Base 50)
Averaged from 23 records on October 15, 2013
WEATHER CONDITIONS BREAKOUT
WIND DIRECTION BREAKOUT
WEATHER BY HOUR - OCTOBER 15, 2013
[ °C ]   °F
Local TimeTemperatureDewpointHumidityBarometerVisibilityWind DirectionWind SpeedGust SpeedPrecipitationEventsConditions
1:51 AM55.0 °F51.1 °F86 %30.25 in10.0 miENE (70°)3.5 mphClear
2:51 AM54.0 °F50.0 °F86 %30.24 in10.0 miCalmClear
3:51 AM54.0 °F50.0 °F86 %30.23 in10.0 miNE (40°)3.5 mphClear
4:51 AM55.0 °F50.0 °F83 %30.24 in10.0 miNNW (340°)3.5 mphClear
5:51 AM54.0 °F50.0 °F86 %30.23 in8.0 miCalmClear
6:51 AM54.0 °F50.0 °F86 %30.22 in8.0 miCalmClear
7:51 AM55.9 °F51.1 °F84 %30.23 in7.0 miCalmClear
8:51 AM59.0 °F51.1 °F75 %30.23 in8.0 miVariable3.5 mphClear
9:51 AM61.0 °F51.1 °F70 %30.24 in8.0 miENE (60°)3.5 mphClear
10:51 AM63.0 °F50.0 °F63 %30.24 in10.0 miENE (60°)5.8 mphClear
11:51 AM64.9 °F51.1 °F61 %30.22 in10.0 miSE (140°)3.5 mphClear
12:51 PM69.1 °F53.1 °F57 %30.20 in10.0 miVariable4.6 mphClear
1:51 PM70.0 °F50.0 °F49 %30.17 in10.0 miCalmClear
2:51 PM71.1 °F48.9 °F45 %30.16 in10.0 miVariable3.5 mphClear
3:51 PM70.0 °F46.9 °F44 %30.14 in10.0 miVariable4.6 mphClear
4:51 PM66.0 °F48.9 °F54 %30.14 in10.0 miVariable3.5 mphClear
5:51 PM63.0 °F46.9 °F56 %30.14 in10.0 miVariable3.5 mphClear
6:51 PM61.0 °F48.0 °F62 %30.17 in10.0 miVariable4.6 mphClear
7:51 PM60.1 °F45.0 °F57 %30.16 in10.0 miEast (80°)4.6 mphClear
8:51 PM60.1 °F44.1 °F55 %30.17 in10.0 miCalmClear
9:51 PM57.9 °F46.0 °F65 %30.16 in10.0 miSE (130°)4.6 mphClear
10:51 PM57.9 °F46.9 °F67 %30.14 in10.0 miESE (120°)6.9 mphClear
11:51 PM55.9 °F50.0 °F80 %30.13 in10.0 miCalmClear
Hourly data recorded from KNYC, located miles away from New York - Central Park, New York







STORIES FROM OUR PARTNERS